Regional Weather Roundup
Issued by NWS Northern Indiana

Home | Current Version | Previous Version | Graphics & Text | Print | Product List | Glossary On
Versions: 1 2 3 4 5 6 7 8 9 10 11 12 13 14 15 16 17 18 19 20 21 22 23 24 25 26 27 28 29 30 31 32 33 34 35 36 37 38 39 40 41 42 43 44 45 46 47 48 49 50
000
ASUS43 KIWX 242000
RWRIWX

KIWX WEATHER ROUNDUP
NATIONAL WEATHER SERVICE NORTHERN INDIANA
300 PM EST MON NOV 24 2014

NOTE: "FAIR" INDICATES FEW OR NO CLOUDS BELOW 12,000 FEET WITH NO
SIGNIFICANT WEATHER AND/OR OBSTRUCTIONS TO VISIBILITY.

* THESE STATIONS ARE NOT UNDER NWS QUALITY CONTROL. THEY ALSO MAY NOT
  REPORT WEATHER SUCH AS PRECIPITATION OR FOG.

INZ001>027-242100-
NORTHERN INDIANA

CITY           SKY/WX    TMP DP  RH WIND       PRES   REMARKS
GARY*          CLOUDY    34  30  86 SW29G41   29.46R WCI  20
SOUTH BEND     FLURRIES  35  32  88 SW22G36   29.44R WCI  23
GOSHEN         LGT RAIN  42  31  64 SW30G44   29.46R
ANGOLA*        CLOUDY    36  30  80 W24G33    29.41R
FORT WAYNE     CLOUDY    38  32  79 SW28G40   29.52R

$$
INZ028>050-242100-
CENTRAL INDIANA

CITY           SKY/WX    TMP DP  RH WIND       PRES   REMARKS
LAFAYETTE      CLOUDY    34  29  82 W21G31    29.60R WCI  22
KOKOMO*        CLOUDY    36  28  75 SW33G46   29.59R
MUNCIE*        CLOUDY    40  32  73 W20G32    29.58R
INDIANAPOLIS   CLOUDY    37  31  78 SW28G37   29.63R

$$
MIZ043>046-050>051-056>058-064>065-071>073-077>080-242100-
SOUTHWEST LOWER MICHIGAN

CITY           SKY/WX    TMP DP  RH WIND       PRES   REMARKS
BATTLE CREEK   CLOUDY    37  32  82 SW29G41   29.34R
BENTON HARBOR  CLOUDY    34  30  85 SW30G43   29.39R WCI  20
COLDWATER*     CLOUDY    37  32  81 SW26G41   29.39R
HOLLAND        SNOW      35  32  88 SW31G43   29.31R VSB 1/2 WCI  22
GRAND RAPIDS   LGT SNOW  36  35  96 SW29G41   29.27R FOG
KALAMAZOO      LGT RAIN  36  31  82 SW23G39   29.37R
STURGIS*       CLOUDY    36  32  87 SW18G33   29.41R
THREE RIVERS*  CLOUDY    36  31  82 SW21G37   29.40R

$$
OHZ001>008-015>018-024>025-242100-
NORTHWEST OHIO

CITY           SKY/WX    TMP DP  RH WIND       PRES   REMARKS
FINDLAY        CLOUDY    43  34  70 SW33G46   29.50R
TOLEDO EXPRESS CLOUDY    40  32  73 SW28G44   29.44R
TOLEDO METCALF CLOUDY    42  33  70 SW33G53   29.45R
LIMA           CLOUDY    42  34  73 SW29G39   29.53R

$$
AND FOR LAKE MICHIGAN COASTAL AND OPEN LAKE BUOY OBSERVATIONS

STATION/POSITION TEMP    WIND        PRES    VSBY  WAVE
                 AIR SEA DIR/SP/G                  HT/PER
                 (F)     (DEG/KT/KT) (MB)    (MI)  (FT/S)
CALUMET HARBOR    32     240/ 13/ 25  994.8R
MICHIGAN CITY     34     210/ 30/ 35   N/A
SAINT JOSEPH      36     210/ 35      994.2R
SOUTH LAKE BUOY   35 42  230/ 31/ 37  989.5R         6/ 5

$$
&&


USA.gov is the U.S. government's official web portal to all federal, state and local government web resources and services.